Find Kosmos-574

NORAD ID: 6707 Int'l Des: 1973-042 Owner: VMF Country: SU operational
LEOCIRCULARPOLAR

Current View

Loading 3D Globe...

About Kosmos-574

Description loading...

Upcoming Passes

Passes for default location (London). Set your location on the main map for personalized predictions.

Altitude History

Loading altitude history...

Two-Line Element Set

1 6707U 73042A 26150.09152965 .00000070 00000-0 59980-4 0 9999
2 6707 82.9505 207.0504 0019972 300.0822 70.8972 13.72420685 88199
Epoch: May 30, 2026 • Age: 9 hours

Current Status

Altitude 1013.8 km
Velocity 7.35 km/s
Sub-Earth Point 72.66°N, 173.23°E
Type other

Most Searched